Hourly Weather Agrarnyy

Today, 7 March, Sunday

Time Temperature Precipitation Wind Pressure Humidity
00:00 -7°C° 0 mm 5 mps 751 mmHg 79%
01:00 -7°C° 0 mm 5 mps 751 mmHg 79%
02:00 -7°C° 0 mm 5 mps 752 mmHg 79%
03:00 -8°C° 0 mm 5 mps 752 mmHg 79%
04:00 -8°C° 0 mm 4 mps 753 mmHg 78%
05:00 -8°C° 0 mm 4 mps 753 mmHg 78%
06:00 -8°C° 0 mm 3 mps 753 mmHg 78%
07:00 -8°C° 0 mm 4 mps 753 mmHg 76%
08:00 -7°C° 0 mm 4 mps 754 mmHg 75%
09:00 -6°C° 0 mm 5 mps 754 mmHg 73%
10:00 -5°C° 0 mm 6 mps 753 mmHg 68%
11:00 -4°C° 0 mm 6 mps 753 mmHg 64%
12:00 -3°C° 0 mm 7 mps 753 mmHg 59%
13:00 -3°C° 0 mm 7 mps 752 mmHg 57%
14:00 -3°C° 0 mm 7 mps 752 mmHg 55%
15:00 -2°C° 0 mm 7 mps 751 mmHg 54%
16:00 -3°C° 0 mm 7 mps 751 mmHg 57%
17:00 -3°C° 0 mm 6 mps 750 mmHg 60%
18:00 -4°C° 0 mm 6 mps 749 mmHg 63%
19:00 -4°C° 0 mm 6 mps 749 mmHg 65%
20:00 -4°C° 0 mm 7 mps 749 mmHg 66%
21:00 -6°C° 0 mm 7 mps 749 mmHg 67%
22:00 -6°C° 0 mm 8 mps 748 mmHg 66%
23:00 -6°C° 0 mm 8 mps 748 mmHg 66%

Tomorrow, 8 March, Monday

Time Temperature Precipitation Wind Pressure Humidity
00:00 -6°C° 0 mm 8 mps 748 mmHg 65%
01:00 -6°C° 0 mm 8 mps 747 mmHg 65%
02:00 -6°C° 0 mm 8 mps 747 mmHg 65%
03:00 -6°C° 0 mm 8 mps 747 mmHg 65%
04:00 -6°C° 0 mm 7 mps 747 mmHg 66%
05:00 -6°C° 0 mm 7 mps 747 mmHg 66%
06:00 -6°C° 0 mm 7 mps 746 mmHg 67%
07:00 -5°C° 0 mm 8 mps 746 mmHg 65%
08:00 -5°C° 0 mm 8 mps 746 mmHg 64%
09:00 -4°C° 0 mm 8 mps 746 mmHg 63%
10:00 -3°C° 0 mm 9 mps 746 mmHg 60%
11:00 -1°C° 0 mm 9 mps 746 mmHg 57%
12:00 +1°C° 0 mm 10 mps 746 mmHg 54%
13:00 +1°C° 0 mm 9 mps 746 mmHg 53%
14:00 +1°C° 0 mm 9 mps 745 mmHg 53%
15:00 +1°C° 0 mm 9 mps 745 mmHg 53%
16:00 +1°C° 0 mm 8 mps 745 mmHg 59%
17:00 +1°C° 0 mm 6 mps 745 mmHg 65%
18:00 0°C° 0 mm 5 mps 745 mmHg 71%
19:00 -1°C° 0 mm 5 mps 745 mmHg 77%
20:00 -1°C° 0 mm 5 mps 745 mmHg 84%
21:00 -2°C° 0 mm 5 mps 745 mmHg 91%
22:00 -3°C° 0.1 mm 6 mps 745 mmHg 91%
23:00 -3°C° 0.1 mm 6 mps 745 mmHg 92%

Day after tomorrow, 9 March, Tuesday

Time Temperature Precipitation Wind Pressure Humidity
00:00 -3°C° 0.1 mm 6 mps 745 mmHg 92%
01:00 -2°C° 0.3 mm 5 mps 745 mmHg 93%
02:00 -4°C° 0.3 mm 5 mps 745 mmHg 94%
03:00 -3°C° 0.3 mm 4 mps 745 mmHg 95%
04:00 -3°C° 0.2 mm 4 mps 745 mmHg 93%
05:00 -3°C° 0.2 mm 4 mps 745 mmHg 92%
06:00 -4°C° 0.2 mm 4 mps 745 mmHg 90%
07:00 -5°C° 0 mm 5 mps 745 mmHg 83%
08:00 -4°C° 0 mm 5 mps 746 mmHg 75%
09:00 -4°C° 0 mm 6 mps 746 mmHg 68%
10:00 -4°C° 0 mm 6 mps 746 mmHg 64%
11:00 -3°C° 0 mm 6 mps 747 mmHg 60%
12:00 -2°C° 0 mm 6 mps 747 mmHg 56%
13:00 -2°C° 0.1 mm 6 mps 747 mmHg 56%
14:00 -2°C° 0.1 mm 6 mps 747 mmHg 56%
15:00 -1°C° 0.1 mm 6 mps 747 mmHg 56%
16:00 -2°C° 0.1 mm 6 mps 747 mmHg 60%
17:00 -3°C° 0.1 mm 6 mps 748 mmHg 63%
18:00 -4°C° 0.1 mm 6 mps 748 mmHg 67%
19:00 -5°C° 0 mm 5 mps 749 mmHg 68%
20:00 -6°C° 0 mm 5 mps 749 mmHg 69%
21:00 -5°C° 0 mm 4 mps 750 mmHg 71%
22:00 -7°C° 0 mm 5 mps 751 mmHg 69%
23:00 -7°C° 0 mm 5 mps 751 mmHg 68%

10 March, Wednesday

Time Temperature Precipitation Wind Pressure Humidity
00:00 -8°C° 0 mm 5 mps 751 mmHg 67%
01:00 -8°C° 0 mm 5 mps 752 mmHg 66%
02:00 -10°C° 0 mm 5 mps 752 mmHg 65%
03:00 -10°C° 0 mm 5 mps 753 mmHg 65%
04:00 -10°C° 0 mm 5 mps 753 mmHg 64%
05:00 -11°C° 0 mm 5 mps 753 mmHg 63%
06:00 -11°C° 0 mm 5 mps 753 mmHg 62%
07:00 -11°C° 0 mm 5 mps 754 mmHg 60%
08:00 -11°C° 0 mm 5 mps 754 mmHg 57%
09:00 -10°C° 0 mm 4 mps 755 mmHg 54%
10:00 -9°C° 0 mm 4 mps 755 mmHg 49%
11:00 -8°C° 0 mm 4 mps 755 mmHg 44%
12:00 -7°C° 0 mm 4 mps 756 mmHg 38%
13:00 -7°C° 0 mm 4 mps 756 mmHg 38%
14:00 -7°C° 0 mm 4 mps 756 mmHg 37%
15:00 -5°C° 0 mm 4 mps 756 mmHg 36%
16:00 -7°C° 0 mm 4 mps 755 mmHg 39%
17:00 -7°C° 0 mm 4 mps 755 mmHg 41%
18:00 -8°C° 0 mm 4 mps 755 mmHg 44%
19:00 -9°C° 0 mm 4 mps 756 mmHg 44%
20:00 -9°C° 0 mm 4 mps 756 mmHg 45%
21:00 -10°C° 0 mm 4 mps 756 mmHg 45%
22:00 -10°C° 0 mm 4 mps 756 mmHg 45%
23:00 -11°C° 0 mm 4 mps 757 mmHg 45%

11 March, Thursday

Time Temperature Precipitation Wind Pressure Humidity
00:00 -11°C° 0 mm 4 mps 757 mmHg 46%
01:00 -12°C° 0 mm 4 mps 757 mmHg 47%
02:00 -12°C° 0 mm 4 mps 757 mmHg 49%
03:00 -12°C° 0 mm 4 mps 757 mmHg 50%
04:00 -14°C° 0 mm 4 mps 757 mmHg 51%
05:00 -14°C° 0 mm 4 mps 757 mmHg 51%
06:00 -14°C° 0 mm 4 mps 757 mmHg 52%
07:00 -14°C° 0 mm 4 mps 758 mmHg 49%
08:00 -14°C° 0 mm 4 mps 758 mmHg 47%
09:00 -14°C° 0 mm 4 mps 758 mmHg 45%
10:00 -12°C° 0 mm 4 mps 758 mmHg 41%
11:00 -11°C° 0 mm 4 mps 758 mmHg 37%
12:00 -11°C° 0 mm 5 mps 758 mmHg 33%
13:00 -11°C° 0 mm 5 mps 758 mmHg 33%
14:00 -10°C° 0 mm 5 mps 758 mmHg 33%
15:00 -10°C° 0 mm 5 mps 758 mmHg 33%
16:00 -11°C° 0 mm 5 mps 758 mmHg 34%
17:00 -11°C° 0 mm 5 mps 758 mmHg 35%
18:00 -11°C° 0 mm 4 mps 758 mmHg 36%
19:00 -11°C° 0 mm 4 mps 759 mmHg 37%
20:00 -12°C° 0 mm 4 mps 759 mmHg 38%
21:00 -12°C° 0 mm 4 mps 760 mmHg 39%
22:00 -12°C° 0 mm 4 mps 760 mmHg 40%
23:00 -14°C° 0 mm 4 mps 760 mmHg 41%

12 March, Friday

Time Temperature Precipitation Wind Pressure Humidity
00:00 -13°C° 0 mm 3 mps 760 mmHg 42%
01:00 -13°C° 0 mm 3 mps 760 mmHg 43%
02:00 -14°C° 0 mm 3 mps 760 mmHg 44%
03:00 -14°C° 0 mm 3 mps 760 mmHg 45%
04:00 -14°C° 0 mm 3 mps 760 mmHg 46%
05:00 -14°C° 0 mm 3 mps 761 mmHg 47%
06:00 -14°C° 0 mm 2 mps 761 mmHg 48%
07:00 -14°C° 0 mm 3 mps 761 mmHg 46%
08:00 -14°C° 0 mm 3 mps 761 mmHg 43%
09:00 -13°C° 0 mm 3 mps 762 mmHg 41%
10:00 -12°C° 0 mm 4 mps 761 mmHg 37%
11:00 -11°C° 0 mm 4 mps 761 mmHg 33%
12:00 -10°C° 0 mm 4 mps 761 mmHg 28%
13:00 -9°C° 0 mm 4 mps 760 mmHg 27%
14:00 -8°C° 0 mm 4 mps 760 mmHg 26%
15:00 -8°C° 0 mm 5 mps 759 mmHg 25%
16:00 -8°C° 0 mm 5 mps 759 mmHg 26%
17:00 -8°C° 0 mm 4 mps 759 mmHg 28%
18:00 -8°C° 0 mm 4 mps 759 mmHg 29%
19:00 -8°C° 0 mm 5 mps 759 mmHg 29%
20:00 -8°C° 0 mm 5 mps 758 mmHg 29%
21:00 -10°C° 0 mm 6 mps 758 mmHg 28%
22:00 -10°C° 0 mm 6 mps 758 mmHg 28%
23:00 -10°C° 0 mm 6 mps 758 mmHg 28%
Show more